Location: 761 Underwood Rd, Vestal, NY 13850, USA
(42.0046°N, 76.0259°W)
Time: 09:10:31
(UTC-04:00)

ISS - Pass Details

Date: 20 March 2019
Orbit: 408 x 410 km, 51.6° (Epoch: 18 April)

Event Time Altitude Azimuth Distance (km) Brightness Sun altitude
Rises 20:45:59 0° 216° (SW) 2,321 0.3 -17.3°
Reaches altitude 10° 20:48:08 10° 208° (SSW) 1,464 -0.9 -17.7°
Enters shadow 20:50:17 30° 177° (S) 751 -2.7 -18.0°
